Location: Derby
(52.9213°N, 1.4761°W)
Time: 02:59:43
(UTC+01:00)

A-11 Canister half - Pass Details

Date: 18 May 2025
Orbit: 1524 x 1684 km, 47.3° (Epoch: 12 June)

Event Time Altitude Azimuth Distance (km) Brightness Sun altitude
Rises 01:00:16 0° 277° (W) 4,786 11.7 -17.5°
Reaches altitude 10° 01:03:24 10° 273° (W) 3,821 11.1 -17.5°
Maximum altitude 01:12:46 54° 200° (SSW) 1,935 9.1 -17.5°
Drops below altitude 10° 01:22:24 10° 127° (SE) 3,924 10.8 -17.4°
Sets 01:25:40 0° 123° (ESE) 4,921 11.4 -17.3°
